Hourly Data Report for March 14, 2006

TORONTO CITY
ONTARIO

43°40'00.000" N
79°24'00.000" W
112.50 m
6158355
71508
XTO

Download Data

Hourly Data (March 2006)
Hourly Data Report for March 14, 2006
TIME
LST
Temp Definition
°C
Dew Point Definition
°C
Rel Hum Definition
%
Precip. Amount Definition
mm

Wind Dir Definition
10's deg

Wind Spd Definition
km/h
Visibility Definition
km
Stn Press Definition
kPa
Hmdx Definition


Wind Chill Definition


Weather Definition


00:00 9.5 5.3 75   LegendMM LegendMM   97.99     LegendNANA
01:00 6.8 1.5 69   LegendMM LegendMM   98.11     LegendNANA
02:00 6.2 -0.4 63   LegendMM LegendMM   98.18     LegendNANA
03:00 5.7 -0.9 62   LegendMM LegendMM   98.18     LegendNANA
04:00 4.5 -2.2 62   LegendMM LegendMM   98.19     LegendNANA
05:00 3.4 -4.5 56   LegendMM LegendMM   98.30     LegendNANA
06:00 2.5 -5.0 58   LegendMM LegendMM   98.38     LegendNANA
07:00 2.1 -5.2 58   LegendMM LegendMM   98.44     LegendNANA
08:00 1.9 -5.5 58   LegendMM LegendMM   98.52     LegendNANA
09:00 1.4 -5.2 61   LegendMM LegendMM   98.61     LegendNANA
10:00 1.2 -8.1 50   LegendMM LegendMM   98.64     LegendNANA
11:00 1.1 -6.6 56   LegendMM LegendMM   98.68     LegendNANA
12:00 1.8 -6.6 54   LegendMM LegendMM   98.70     LegendNANA
13:00 1.8 -6.6 54   LegendMM LegendMM   98.71     LegendNANA
14:00 2.1 -6.3 54   LegendMM LegendMM   98.72     LegendNANA
15:00 2.2 -6.7 52   LegendMM LegendMM   98.73     LegendNANA
16:00 1.6 -5.8 58   LegendMM LegendMM   98.82     LegendNANA
17:00 1.6 -5.5 59   LegendMM LegendMM   98.86     LegendNANA
18:00 1.5 -5.3 61   LegendMM LegendMM   98.91     LegendNANA
19:00 0.7 -3.7 72   LegendMM LegendMM   98.96     LegendNANA
20:00 0.6 -3.7 73   LegendMM LegendMM   99.02     LegendNANA
21:00 -0.1 -2.5 84   LegendMM LegendMM   99.07     LegendNANA
22:00 -0.2 -2.5 84   LegendMM LegendMM   99.10     LegendNANA
23:00 0.1 -4.8 70   LegendMM LegendMM   99.10     LegendNANA

Notes on Data Quality.

Legend

  • E = Estimated
  • M = Missing
  • NA = Not Available*
  • [empty] = Indicates an unobserved value
Date modified: